Temp
11 10 10 10 10 10 11 11 11 10 10 11 11 12 11 11 11 10 10 10 10 9 9 8 8 8 7 7 7 6 6 5 5 5 5 5 5 5 5 5 5 5 5 5 5 5 5 5 5
10 10 10 9 9 9 11 11 10 10 10 11 11 11 11 11 11 10 10 9 9 9 8 8 8 7 7 6 6 6 5 5 5 5 5 4 4 4 4 4 4 5 5 5 5 5 5 5 5
10 10 10 9 9 10 10 10 11 10 10 11 11 11 10 10 10 10 9 9 8 8 8 7 7 7 6 6 6 5 5 4 4 4 4 4 4 4 4 4 4 4 4 4 5 4 4 4 4
10 10 9 9 9 10 10 11 11 11 11 10 11 10 10 10 10 9 9 8 8 7 7 7 6 6 6 6 5 5 4 4 4 4 3 3 3 3 3 3 3 4 4 4 4 4 4 4 4
10 9 9 10 10 10 10 10 10 11 11 10 11 11 10 10 10 9 8 8 7 7 6 6 6 5 5 5 5 4 4 3 3 3 3 3 3 3 3 3 3 3 3 3 4 4 4 4 3
9 9 9 10 10 10 10 9 10 10 10 10 11 11 10 10 9 8 8 7 7 6 6 6 5 5 5 4 4 4 3 3 2 2 2 2 2 2 2 3 3 2 3 3 3 3 3 3 3
9 8 9 9 9 10 10 9 10 9 10 10 10 10 10 9 8 8 7 7 6 6 6 5 5 4 4 3 3 3 2 2 2 2 2 2 2 2 2 2 2 2 2 2 2 3 2 3 3
8 7 8 9 9 9 9 9 9 9 9 9 10 9 9 9 8 7 7 6 6 6 6 5 5 4 4 3 2 2 2 2 1 1 1 1 1 1 1 1 1 1 2 2 2 2 2 2 3
8 7 8 9 9 9 9 10 10 9 9 9 9 9 9 8 7 7 7 6 6 6 6 5 5 4 3 2 2 2 1 1 0 0 0 0 0 1 1 1 1 1 1 1 1 2 2 2 2
8 8 8 8 8 9 9 10 10 9 9 9 9 9 8 8 7 7 6 6 6 6 5 4 3 2 2 2 1 1 0 0 -0 -0 -0 -0 -0 0 0 1 1 1 1 1 1 1 1 1 1
8 8 8 8 8 9 9 9 9 9 8 9 9 8 8 7 7 7 6 6 6 5 4 3 2 2 1 0 0 -0 -0 -0 -0 -1 -1 -1 -1 -1 -1 -0 -0 -0 -0 -0 0 0 0 1 1
7 7 7 7 8 8 8 8 8 9 9 9 8 8 8 7 7 6 6 5 5 4 3 2 2 1 1 0 -1 -1 -1 -1 -1 -1 -1 -1 -1 -1 -1 -1 -1 -1 -1 -1 -1 -0 -0 -0 0
7 7 7 7 7 8 8 8 8 8 8 8 8 8 7 7 6 6 6 5 3 2 2 1 0 0 -0 -1 -1 -1 -1 -2 -2 -2 -2 -2 -2 -2 -2 -2 -2 -1 -1 -1 -1 -1 -1 -1 -0
7 7 7 7 7 8 8 9 8 8 8 8 7 7 7 6 5 5 5 3 2 2 1 0 -0 -1 -1 -1 -1 -2 -2 -2 -2 -2 -2 -2 -3 -2 -2 -2 -3 -3 -2 -2 -2 -2 -1 -1 -1
6 7 7 7 7 7 7 8 7 7 7 7 7 6 6 6 5 4 3 2 1 1 0 -0 -0 -1 -1 -2 -2 -2 -2 -2 -2 -2 -3 -3 -3 -3 -3 -3 -3 -2 -3 -3 -2 -2 -2 -2 -2
7 7 7 6 6 6 6 6 6 6 6 6 6 6 6 5 4 3 2 2 1 0 -0 -0 -1 -1 -2 -2 -2 -3 -3 -3 -3 -3 -3 -3 -3 -3 -3 -3 -3 -3 -3 -3 -3 -3 -3 -3 -2
6 6 6 5 5 5 5 5 5 5 5 5 5 6 5 4 4 2 2 1 0 -1 -1 -1 -1 -1 -2 -2 -3 -3 -3 -3 -3 -3 -3 -4 -3 -3 -3 -4 -4 -4 -4 -4 -4 -4 -4 -4 -3
5 5 5 5 4 4 4 4 4 4 4 4 5 5 4 3 2 1 1 0 -1 -2 -1 -1 -2 -2 -2 -3 -3 -4 -3 -3 -3 -3 -4 -4 -4 -4 -4 -4 -4 -4 -4 -4 -4 -4 -4 -4 -4
5 4 4 4 4 3 4 3 3 3 4 4 4 4 4 2 1 1 1 -0 -1 -1 -2 -2 -3 -3 -3 -3 -4 -4 -4 -4 -4 -4 -4 -4 -4 -4 -4 -4 -5 -5 -5 -5 -5 -5 -5 -4 -4
4 4 4 4 4 3 3 2 1 2 2 2 3 4 3 1 1 1 -0 -1 -2 -2 -2 -3 -3 -3 -3 -4 -4 -4 -4 -4 -4 -4 -4 -5 -5 -5 -5 -5 -5 -5 -5 -5 -5 -5 -6 -6 -6
4 3 3 3 3 3 3 2 1 1 0 1 3 3 1 0 1 0 -1 -1 -1 -2 -3 -3 -3 -3 -4 -4 -4 -4 -5 -5 -5 -5 -5 -5 -5 -6 -6 -6 -6 -6 -6 -6 -6 -6 -6 -6 -6
3 2 2 3 2 2 2 1 1 0 0 0 1 1 0 0 0 -1 -1 -2 -2 -2 -3 -3 -4 -4 -4 -4 -4 -4 -4 -4 -5 -5 -5 -6 -6 -6 -6 -6 -6 -6 -6 -6 -7 -7 -7 -7 -7
2 2 3 3 2 2 2 1 -2 -1 0 0 0 -0 -0 -0 -1 -2 -2 -2 -2 -3 -4 -4 -4 -4 -4 -4 -4 -4 -5 -5 -5 -5 -5 -6 -6 -6 -6 -6 -6 -6 -6 -6 -6 -7 -8 -8 -7
1 2 3 3 2 -1 -1 -1 -2 -1 -1 -1 -1 -1 -1 -2 -2 -2 -2 -3 -3 -4 -4 -4 -4 -4 -4 -4 -5 -5 -5 -5 -5 -6 -6 -6 -6 -6 -6 -6 -6 -7 -7 -7 -7 -8 -8 -8 -8
1 1 0 -1 -2 -4 -1 -1 -2 -1 -1 -1 -1 -1 -1 -2 -2 -2 -3 -3 -4 -4 -4 -4 -4 -4 -4 -5 -5 -5 -5 -6 -5 -5 -5 -5 -5 -5 -6 -6 -7 -7 -8 -8 -8 -8 -9 -9 -9
-0 -1 -1 -4 -3 -2 -1 -2 -2 -2 -2 -2 -2 -2 -1 -2 -2 -3 -3 -4 -4 -4 -4 -4 -4 -4 -5 -5 -5 -6 -6 -6 -5 -5 -5 -5 -5 -5 -6 -6 -7 -7 -8 -8 -9 -9 -10 -11 -11
-1 -2 -2 -2 -2 -3 -2 -2 -2 -2 -2 -2 -2 -2 -2 -2 -3 -3 -4 -4 -4 -4 -4 -4 -4 -5 -5 -5 -6 -6 -6 -5 -5 -5 -5 -5 -6 -6 -6 -7 -7 -7 -8 -9 -9 -10 -11 -12 -12
-3 -2 -2 -2 -6 -7 -3 -2 -2 -2 -2 -2 -3 -3 -3 -3 -4 -4 -4 -4 -4 -4 -4 -4 -4 -5 -5 -5 -5 -5 -5 -5 -5 -5 -6 -6 -6 -6 -6 -7 -7 -8 -9 -10 -11 -12 -13 -13 -13
-3 -3 -3 -3 -3 -4 -3 -3 -2 -2 -3 -3 -3 -3 -3 -4 -4 -4 -4 -4 -4 -4 -4 -5 -5 -5 -5 -6 -5 -5 -5 -5 -5 -6 -7 -6 -6 -7 -7 -7 -8 -9 -10 -11 -12 -13 -14 -14 -14
-4 -3 -3 -4 -4 -4 -3 -3 -2 -2 -2 -2 -3 -3 -4 -4 -3 -4 -3 -4 -4 -4 -5 -5 -5 -5 -6 -5 -5 -5 -5 -5 -6 -6 -6 -6 -7 -7 -7 -8 -9 -10 -11 -12 -13 -14 -14 -14 -14
Height
3137 3136 3135 3135 3139 3135 3134 3136 3134 3134 3134 3133 3134 3135 3135 3134 3135 3138 3133 3132 3130 3130 3129 3129 3128 3127 3126 3126 3125 3124 3123 3122 3122 3122 3121 3120 3120 3121 3121 3121 3121 3121 3122 3122 3122 3122 3122 3123 3124
3136 3135 3135 3134 3135 3134 3134 3134 3133 3132 3132 3133 3133 3133 3134 3134 3133 3132 3131 3130 3128 3127 3127 3126 3125 3125 3124 3123 3122 3121 3121 3120 3120 3119 3118 3118 3117 3117 3117 3118 3118 3118 3118 3118 3119 3119 3120 3120 3120
3135 3134 3135 3133 3132 3133 3133 3132 3130 3129 3130 3131 3133 3132 3132 3131 3130 3129 3129 3127 3126 3126 3125 3124 3123 3122 3121 3120 3119 3119 3118 3118 3118 3117 3115 3115 3115 3114 3114 3114 3114 3114 3115 3115 3115 3116 3116 3116 3117
3133 3133 3134 3131 3131 3132 3132 3131 3129 3127 3127 3129 3130 3131 3130 3129 3128 3127 3125 3124 3124 3123 3123 3122 3121 3120 3119 3118 3118 3117 3116 3116 3115 3114 3113 3112 3112 3112 3111 3111 3111 3111 3111 3111 3111 3112 3112 3113 3114
3132 3131 3130 3128 3129 3130 3131 3130 3128 3126 3126 3127 3128 3128 3127 3126 3125 3123 3122 3121 3121 3122 3122 3120 3118 3117 3117 3116 3116 3115 3114 3113 3112 3111 3111 3111 3110 3109 3109 3108 3107 3107 3107 3107 3107 3108 3109 3110 3110
3131 3130 3128 3126 3126 3129 3129 3128 3126 3125 3125 3126 3126 3125 3126 3124 3123 3122 3120 3119 3119 3119 3117 3116 3115 3114 3114 3114 3113 3112 3111 3111 3110 3110 3109 3108 3108 3106 3105 3105 3104 3104 3103 3103 3103 3104 3104 3105 3105
3128 3128 3125 3123 3123 3125 3126 3125 3124 3124 3123 3123 3123 3123 3124 3122 3121 3119 3117 3117 3117 3116 3115 3113 3112 3111 3111 3111 3110 3109 3109 3108 3108 3107 3106 3106 3105 3103 3102 3101 3101 3100 3100 3099 3098 3100 3099 3100 3101
3125 3125 3123 3122 3121 3121 3123 3122 3121 3120 3121 3121 3120 3120 3121 3120 3118 3116 3115 3114 3114 3114 3113 3111 3110 3109 3109 3108 3108 3107 3106 3106 3105 3104 3103 3102 3101 3099 3098 3098 3097 3096 3095 3094 3094 3094 3094 3095 3096
3123 3123 3121 3121 3121 3119 3119 3117 3116 3115 3116 3117 3117 3117 3117 3116 3115 3114 3113 3113 3112 3112 3110 3109 3108 3107 3107 3107 3106 3105 3104 3103 3102 3101 3100 3098 3097 3095 3093 3093 3093 3092 3090 3090 3089 3089 3089 3089 3090
3120 3119 3119 3121 3119 3117 3116 3113 3111 3111 3112 3113 3114 3114 3114 3113 3112 3111 3110 3110 3110 3109 3107 3106 3105 3105 3104 3104 3104 3103 3102 3102 3100 3099 3097 3095 3093 3091 3089 3088 3087 3086 3085 3084 3084 3084 3083 3084 3085
3116 3116 3118 3118 3116 3114 3112 3111 3108 3108 3109 3112 3111 3110 3110 3109 3108 3107 3107 3107 3106 3106 3104 3103 3103 3103 3103 3103 3102 3101 3100 3099 3098 3096 3094 3092 3089 3087 3086 3084 3082 3081 3080 3079 3078 3078 3078 3078 3078
3114 3115 3114 3114 3112 3111 3109 3108 3107 3107 3108 3107 3106 3107 3106 3105 3105 3105 3104 3103 3103 3103 3103 3103 3102 3101 3100 3100 3100 3099 3098 3096 3095 3093 3091 3089 3086 3083 3080 3078 3077 3075 3074 3072 3071 3071 3071 3071 3072
3112 3112 3111 3109 3108 3107 3105 3105 3103 3102 3101 3102 3102 3102 3102 3102 3101 3101 3100 3100 3101 3102 3101 3101 3101 3101 3100 3099 3098 3096 3094 3093 3091 3089 3087 3085 3082 3078 3075 3073 3070 3069 3067 3066 3065 3064 3064 3064 3064
3110 3109 3107 3106 3105 3103 3102 3100 3098 3098 3098 3098 3097 3097 3098 3098 3098 3097 3098 3099 3100 3100 3100 3100 3099 3098 3097 3096 3093 3092 3090 3088 3087 3085 3083 3080 3077 3073 3070 3067 3065 3062 3060 3059 3058 3057 3057 3057 3057
3108 3108 3105 3104 3103 3101 3099 3099 3097 3096 3095 3095 3094 3095 3094 3094 3094 3096 3097 3097 3099 3099 3099 3098 3097 3096 3095 3093 3091 3089 3087 3085 3083 3081 3078 3075 3072 3068 3065 3062 3058 3055 3053 3051 3051 3050 3050 3050 3050
3106 3106 3104 3103 3100 3099 3098 3097 3096 3094 3093 3092 3091 3091 3091 3091 3092 3093 3095 3097 3097 3097 3097 3097 3096 3093 3091 3090 3088 3087 3084 3082 3079 3075 3071 3067 3064 3060 3057 3054 3052 3048 3046 3044 3043 3041 3041 3041 3042
3104 3104 3103 3102 3099 3098 3096 3094 3092 3090 3089 3088 3087 3087 3086 3087 3088 3091 3094 3095 3096 3095 3095 3094 3093 3091 3089 3087 3086 3083 3079 3076 3072 3068 3064 3059 3055 3051 3048 3045 3043 3040 3037 3036 3035 3033 3032 3032 3032
3103 3103 3102 3101 3099 3095 3093 3093 3090 3088 3087 3086 3084 3081 3081 3084 3088 3091 3092 3094 3094 3093 3092 3090 3090 3088 3086 3084 3081 3078 3074 3069 3065 3060 3055 3051 3047 3042 3038 3036 3033 3030 3028 3026 3024 3023 3022 3022 3022
3103 3102 3101 3099 3098 3095 3091 3090 3088 3087 3085 3083 3081 3079 3078 3081 3086 3089 3091 3091 3090 3089 3088 3088 3086 3085 3083 3081 3077 3072 3066 3062 3058 3053 3047 3041 3037 3032 3029 3025 3022 3019 3017 3016 3014 3012 3011 3010 3010
3102 3100 3098 3097 3095 3094 3091 3089 3086 3084 3081 3079 3077 3074 3074 3080 3085 3087 3089 3090 3089 3088 3087 3086 3084 3083 3080 3076 3071 3066 3062 3057 3051 3044 3039 3034 3029 3024 3020 3016 3012 3008 3006 3004 3002 3001 3002 3003 3003
3100 3098 3097 3096 3092 3092 3089 3087 3085 3084 3081 3078 3075 3071 3072 3080 3085 3087 3086 3087 3087 3086 3084 3083 3082 3079 3075 3069 3065 3059 3054 3048 3041 3036 3031 3025 3018 3013 3008 3004 3001 2998 2996 2994 2992 2992 2991 2992 2994
3098 3096 3094 3091 3090 3090 3089 3088 3084 3083 3082 3078 3076 3075 3076 3081 3084 3086 3086 3085 3084 3083 3082 3081 3079 3075 3070 3064 3059 3052 3045 3038 3033 3026 3022 3017 3010 3004 2999 2995 2991 2987 2984 2982 2981 2980 2980 2980 2983
3097 3093 3090 3088 3087 3088 3088 3087 3087 3083 3082 3080 3079 3079 3081 3084 3085 3085 3084 3084 3083 3081 3081 3079 3075 3070 3065 3059 3052 3044 3036 3028 3022 3018 3011 3005 2999 2993 2989 2985 2981 2977 2974 2972 2970 2968 2967 2967 2968
3094 3091 3088 3087 3086 3089 3090 3089 3089 3085 3084 3083 3081 3080 3081 3082 3082 3084 3084 3083 3082 3080 3078 3075 3070 3065 3059 3051 3044 3035 3026 3020 3015 3008 3001 2994 2988 2984 2979 2974 2970 2966 2962 2959 2957 2956 2955 2955 2955
3093 3089 3088 3090 3090 3093 3090 3090 3090 3088 3087 3085 3083 3081 3081 3081 3082 3084 3084 3082 3081 3079 3075 3071 3065 3059 3052 3045 3036 3027 3020 3014 3006 2999 2991 2983 2979 2975 2969 2962 2956 2951 2947 2943 2940 2939 2938 2939 2941
3093 3092 3093 3098 3095 3092 3090 3091 3091 3089 3088 3087 3085 3084 3083 3083 3084 3085 3084 3082 3079 3076 3071 3066 3060 3053 3045 3037 3030 3023 3016 3006 2998 2989 2981 2975 2969 2963 2957 2950 2943 2938 2932 2927 2924 2921 2921 2922 2924
3094 3094 3095 3093 3092 3092 3092 3091 3090 3089 3089 3088 3085 3085 3085 3085 3085 3085 3083 3080 3076 3072 3068 3062 3055 3047 3040 3034 3024 3015 3006 2998 2990 2982 2973 2965 2958 2950 2943 2936 2929 2922 2915 2910 2905 2902 2901 2903 2906
3098 3097 3095 3093 3097 3101 3091 3091 3090 3091 3091 3089 3087 3086 3086 3086 3086 3084 3081 3078 3074 3070 3064 3058 3050 3042 3035 3027 3019 3009 3000 2992 2983 2972 2964 2955 2946 2936 2928 2920 2911 2904 2897 2892 2888 2885 2885 2886 2890
3099 3097 3097 3097 3098 3098 3095 3093 3093 3092 3092 3090 3089 3088 3088 3087 3086 3083 3080 3076 3072 3068 3061 3054 3047 3038 3031 3022 3014 3005 2995 2985 2974 2964 2953 2942 2934 2925 2917 2907 2899 2890 2883 2878 2873 2871 2872 2875 2879
3103 3101 3100 3100 3099 3095 3095 3097 3094 3094 3093 3092 3091 3090 3089 3088 3086 3083 3079 3076 3071 3065 3058 3051 3043 3036 3028 3019 3009 2999 2989 2979 2969 2958 2947 2936 2926 2916 2905 2895 2886 2877 2871 2867 2864 2863 2865 2867 2873
Wind_Speed
7 8 9 10 7 3 6 5 12 16 7 8 6 5 7 8 11 10 9 9 11 11 11 12 14 15 16 15 15 14 14 15 15 15 15 15 14 14 14 14 15 15 15 15 15 15 15 14 14
9 9 10 12 7 5 4 12 16 16 8 12 6 4 4 5 9 11 13 11 11 11 12 13 13 14 15 15 14 15 14 15 15 15 15 15 15 15 15 15 16 16 17 17 16 15 16 16 15
11 10 11 7 5 1 7 13 15 16 10 11 5 6 5 12 13 9 10 10 10 11 11 11 12 13 15 15 15 15 15 16 16 16 15 15 15 16 17 17 17 18 18 18 17 16 16 16 16
11 12 11 12 14 12 7 13 11 11 11 12 7 5 12 16 14 14 10 9 11 11 11 11 12 12 14 15 16 16 16 16 16 16 16 16 16 17 17 18 18 19 18 18 18 17 17 16 16
11 12 12 16 17 14 10 15 9 8 9 8 9 12 14 17 17 15 14 12 10 10 11 11 12 13 14 14 15 16 16 17 16 16 16 16 17 17 18 18 19 19 19 19 19 18 18 17 17
14 13 16 21 20 15 15 15 13 11 10 10 10 14 16 15 17 16 14 11 11 13 14 14 13 13 13 14 15 15 15 15 15 16 17 17 17 19 19 19 20 19 20 20 20 19 18 18 18
16 15 21 23 24 18 14 19 22 15 14 13 13 16 18 14 15 16 8 7 11 13 16 16 15 14 13 13 13 13 13 14 15 16 17 17 18 18 20 20 20 21 20 20 21 19 20 20 19
14 15 21 23 22 20 18 23 22 17 19 19 17 18 18 18 16 13 6 9 12 12 15 16 16 15 14 13 13 13 13 13 14 16 17 18 19 20 21 21 21 22 22 22 22 21 21 21 21
14 17 21 21 21 23 21 24 24 18 23 22 20 21 21 19 16 12 9 9 11 11 13 15 16 15 14 13 12 12 12 12 13 14 17 18 20 21 22 22 22 22 23 23 23 22 23 22 22
18 21 22 19 21 21 21 22 20 19 23 23 22 22 19 20 15 13 9 11 12 12 14 14 12 11 11 11 11 11 11 12 12 14 16 19 21 22 22 23 23 23 24 24 24 24 24 23 24
22 24 21 20 21 22 18 19 15 15 21 22 24 20 19 18 15 13 9 11 13 12 13 12 9 9 9 9 10 11 11 13 15 17 20 22 24 25 25 25 26 25 26 26 26 25 25 25 26
21 20 20 21 20 21 22 18 22 24 25 24 22 21 18 17 15 10 11 12 14 10 11 9 9 9 9 9 10 12 15 17 19 21 23 25 27 28 28 27 28 28 28 28 28 27 27 27 26
18 16 16 20 20 20 22 22 23 25 23 22 22 23 21 15 13 12 16 15 9 5 5 6 7 9 8 10 13 17 19 22 23 25 28 30 32 30 29 29 28 29 30 30 29 29 29 29 29
14 13 12 16 14 10 12 14 17 19 20 21 21 22 18 14 12 15 15 7 4 3 3 9 12 13 14 14 17 20 23 25 27 30 32 34 35 33 32 31 30 29 30 31 31 31 30 30 30
9 5 4 6 8 12 11 9 10 14 20 24 20 15 11 11 11 13 9 2 5 6 4 7 11 15 17 18 20 22 25 28 31 34 36 38 39 35 32 31 31 32 31 32 31 31 30 30 30
3 1 7 12 11 13 15 13 13 14 17 18 16 13 12 13 12 14 4 2 6 6 6 10 11 13 17 22 24 26 28 31 34 36 40 42 43 39 36 34 32 32 31 31 30 31 30 30 29
3 8 10 10 15 19 19 17 22 24 22 18 15 14 13 14 17 11 5 5 3 6 7 8 13 15 19 24 28 31 33 35 37 40 43 45 43 40 37 35 33 33 32 31 30 30 31 31 30
8 9 7 12 15 17 16 17 17 18 14 14 14 18 17 16 13 6 7 4 3 4 9 12 14 16 21 26 29 34 37 38 40 43 46 45 42 41 39 37 35 34 33 32 32 31 31 32 32
7 9 11 14 14 16 18 20 18 16 18 22 21 19 18 16 13 8 4 2 2 8 17 17 17 20 25 29 33 38 39 40 43 46 45 43 42 41 40 38 37 37 37 36 35 34 32 31 31
9 11 13 12 18 12 13 14 8 14 17 18 21 19 11 15 12 9 4 4 10 15 17 18 20 24 28 31 37 40 39 41 44 43 42 42 41 39 38 38 38 39 38 36 35 35 31 28 27
13 13 17 23 16 8 11 10 9 7 13 17 16 6 9 13 10 9 7 13 15 15 17 19 24 27 32 37 42 41 43 43 42 41 39 38 39 38 39 39 39 37 35 34 34 32 33 31 30
14 16 21 20 8 1 7 3 10 11 9 14 11 5 12 13 10 8 12 16 23 20 17 20 24 31 36 41 42 44 43 43 41 40 38 37 38 39 39 37 34 33 32 33 34 34 35 34 32
13 20 20 11 4 5 13 4 15 12 12 8 9 6 4 7 6 12 9 20 25 18 15 22 28 34 39 41 42 42 43 43 43 41 41 40 38 37 34 33 33 34 35 36 37 38 38 38 38
15 14 7 1 2 3 12 4 14 18 17 13 10 5 5 5 12 12 15 22 21 11 19 25 32 38 39 40 40 42 43 43 42 40 41 39 37 35 34 34 35 36 37 38 40 40 41 41 40
14 14 7 4 5 2 5 3 6 10 11 14 16 11 5 9 1 14 18 20 13 18 24 31 35 37 37 39 40 42 42 41 41 40 40 39 38 35 34 35 36 38 39 41 42 40 41 43 43
13 10 3 3 1 3 3 2 4 8 10 9 12 11 8 4 4 9 16 13 18 25 30 31 34 35 36 38 38 38 38 39 38 39 40 39 37 34 34 36 39 41 44 46 45 46 43 44 46
10 10 3 3 2 1 2 1 5 10 10 9 10 12 10 6 4 8 13 19 24 25 29 30 32 33 35 34 36 37 38 38 38 38 39 40 38 37 38 38 41 43 45 45 43 41 40 40 42
21 10 3 4 4 4 4 2 4 9 12 8 10 11 8 7 8 13 17 19 23 26 27 29 30 32 33 34 35 36 36 35 36 38 39 41 41 41 40 42 45 46 44 40 33 33 33 33 33
14 24 9 4 3 0 2 3 11 8 9 9 8 7 7 8 11 13 17 20 23 24 25 27 29 31 32 32 32 33 34 36 38 41 42 43 42 39 42 45 46 40 32 26 23 22 23 24 26
10 15 16 5 4 6 3 3 7 7 8 8 7 7 8 10 12 15 18 20 21 23 26 29 29 29 30 31 32 35 37 38 38 39 40 42 42 42 44 44 38 26 21 17 15 15 17 18 25
Wind_Direction
288 303 315 314 311 293 319 345 341 348 281 224 247 272 289 276 290 286 291 291 283 282 287 294 303 309 309 311 310 309 307 304 299 294 293 290 286 283 280 278 276 275 276 277 279 281 279 274 267
284 292 306 305 287 294 356 342 336 325 293 255 271 356 330 323 316 265 282 271 271 274 280 287 295 300 304 307 308 306 303 298 294 292 291 289 288 286 284 283 283 282 281 280 279 278 278 276 273
287 294 302 293 276 311 330 335 321 310 274 250 298 357 353 347 339 298 281 260 258 268 274 285 295 303 306 308 307 303 300 296 294 292 289 287 287 287 287 286 286 283 283 281 280 278 275 272 270
297 291 289 274 279 293 305 333 311 306 271 263 289 348 342 339 340 328 301 284 287 283 289 298 304 306 305 305 303 301 298 295 293 289 287 287 287 287 286 287 284 283 283 281 278 276 273 271 267
298 291 280 279 285 299 305 336 309 286 278 259 290 318 327 332 335 329 315 296 296 297 304 313 316 310 306 303 302 300 299 297 294 291 290 289 288 287 287 286 285 285 284 282 279 276 273 271 267
284 280 275 279 286 293 299 342 321 282 259 260 280 300 312 314 324 320 311 298 310 313 320 322 316 308 306 304 303 301 297 294 293 293 293 292 291 290 289 288 287 287 286 283 281 279 277 270 263
270 267 273 279 286 290 306 318 327 292 260 253 274 293 310 306 314 321 291 313 319 320 322 321 315 312 307 304 301 296 294 293 294 294 293 292 291 289 288 289 289 287 286 286 283 281 277 273 270
277 271 272 282 293 292 305 309 310 291 260 254 268 290 305 307 310 326 302 335 331 324 321 316 312 307 304 301 301 304 301 299 300 300 301 300 299 298 296 295 295 293 290 286 283 281 278 275 272
268 264 272 286 301 303 311 303 301 281 251 249 267 294 304 299 301 332 328 317 323 317 314 309 303 302 300 305 305 301 302 305 304 304 305 305 302 300 297 296 295 292 289 287 284 280 277 275 273
257 265 271 288 291 302 306 309 294 269 259 258 284 299 292 289 295 325 319 315 307 311 307 300 300 302 306 304 304 306 306 305 309 312 313 311 307 302 299 297 294 292 290 288 286 283 280 277 273
262 266 280 277 286 290 299 307 300 281 261 282 299 288 276 285 302 307 286 291 296 299 294 299 317 319 306 301 303 305 313 318 322 325 325 322 318 314 309 304 301 297 294 291 288 285 282 277 274
266 273 282 289 283 282 284 286 286 288 293 289 286 281 279 287 305 292 279 281 284 292 303 314 324 313 302 303 320 327 332 334 335 333 329 327 322 316 310 305 301 298 294 291 289 286 283 280 276
279 289 287 291 294 291 286 286 273 277 279 284 287 285 282 286 295 264 264 270 297 325 305 326 342 355 353 339 338 336 335 333 330 331 330 329 324 317 310 304 300 296 293 291 288 286 284 282 279
291 307 295 293 311 297 292 295 262 268 274 276 284 277 286 297 268 261 271 306 346 357 357 9 7 8 1 348 339 335 332 328 327 326 325 324 322 317 311 305 300 294 291 289 286 284 281 279 277
317 319 295 314 328 329 325 306 281 284 281 282 287 285 308 308 276 252 249 297 89 73 47 26 15 12 0 347 337 329 323 322 321 321 321 319 319 314 308 303 298 294 292 290 288 285 283 280 277
318 180 2 338 329 326 329 328 318 298 303 311 310 299 298 306 253 239 242 164 124 60 25 356 345 348 349 345 335 325 320 318 317 316 316 317 317 315 310 306 301 297 294 291 290 288 284 281 277
337 350 348 346 330 330 326 330 322 317 316 318 311 291 276 262 242 223 200 163 125 45 20 321 316 330 330 328 322 325 320 316 314 314 315 316 314 311 307 304 300 295 293 290 287 283 282 279 275
351 347 346 341 343 340 331 340 329 325 325 325 312 294 278 252 222 214 191 58 52 333 294 291 305 315 320 315 316 318 315 313 313 314 313 312 310 307 303 300 297 295 292 290 288 285 282 281 278
322 323 328 331 339 321 321 325 314 304 304 301 305 291 279 242 214 199 149 28 77 278 283 284 294 310 310 312 314 314 313 312 311 311 311 309 305 303 302 300 299 297 295 293 289 283 278 274 272
313 327 335 328 336 303 300 313 317 311 311 315 313 293 261 223 207 198 136 38 317 300 291 284 299 302 306 308 309 311 308 309 311 310 308 307 305 303 303 302 298 294 292 291 288 286 284 277 273
338 333 334 331 329 304 314 276 287 341 341 327 327 323 154 195 211 198 179 346 323 315 287 285 298 305 307 308 311 310 311 312 309 309 308 307 302 300 296 293 291 291 289 287 284 282 278 274 266
336 327 328 327 319 242 26 289 331 356 358 7 16 55 146 188 210 213 228 300 325 314 285 283 297 304 303 307 310 312 311 310 311 310 307 304 300 298 296 296 294 290 287 285 283 280 278 273 269
323 324 325 326 310 206 358 359 359 343 5 13 21 45 201 239 239 262 260 293 314 315 284 297 300 299 306 308 311 312 312 313 312 313 309 305 302 297 297 296 296 294 291 288 285 281 277 272 267
337 334 304 274 60 63 14 9 28 25 16 30 24 351 254 218 242 240 266 297 319 304 295 292 300 306 309 312 315 313 313 313 315 310 308 306 304 306 306 302 298 294 289 285 282 277 272 268 264
359 21 3 17 22 204 2 2 34 25 31 40 35 41 18 359 281 240 281 307 296 294 300 305 309 313 315 316 314 313 314 316 313 313 310 309 310 309 304 299 296 293 291 288 283 275 268 264 258
9 20 58 212 343 303 351 31 342 19 27 28 25 28 32 350 290 274 303 311 301 307 310 314 316 318 317 316 315 315 318 316 316 313 312 310 309 308 302 298 294 292 290 287 283 278 270 256 252
349 356 328 289 288 340 322 32 53 33 7 11 36 34 30 32 337 313 310 309 312 315 318 322 321 318 317 321 322 324 323 320 319 315 314 312 312 308 302 298 295 294 290 290 291 283 274 262 252
43 24 12 355 43 336 331 12 55 26 16 25 43 47 31 14 337 319 315 320 322 327 327 325 322 324 330 331 330 326 324 323 324 322 321 317 312 308 307 306 303 303 302 298 285 272 264 254 244
15 22 27 40 31 301 315 339 59 33 4 27 42 45 31 2 340 331 332 332 335 333 330 332 337 336 337 337 334 334 336 334 331 329 324 319 316 313 310 310 310 310 306 294 277 266 256 244 235
1 8 17 12 315 300 278 348 21 43 35 49 53 38 21 359 347 342 342 341 341 344 345 346 344 345 343 345 346 345 342 338 335 334 335 332 327 320 320 321 321 321 311 296 279 258 238 231 218